Pagrindinis puslapis
METAR-TAF:

METAR-TAF

Oro uostai :

San Gabriel da Kašoeira, Amazonė, Brazilija

platuma: 00-08S, ilguma: 067-05W, Aukštis: 90 m

Dabartinis oras

Ataskaita buvo paskelbta 10 valandos ir 34 minutes, ne 18:00 UTC
Vėjas 3 kt iš Vakarų/Šiaurės Vakarų
Temperatūra 29°C
Drėgmė 79%
Slėgis 1012 hPa
Matomumas 10 km arba daugiau
Išsisklaidę debesys ne aukštis 1500 ft

METAR: SBUA 291800Z 30003KT 9999 SCT015 29/25 Q1012

Laikas: 00:34 (04:34 UTC)


TAF: trūkstamas

Orai ataskaitas ir orų prognozės (METAR, TAF).

turimą stotys yra geltonos ir raudonos taškus žemėlapyje.

Perkelti pele per norėdami pamatyti stoties vardą.

Tada spustelėkite, norėdami matyti oro stebėjimo ir prognozės.

Norėdami pakeisti žemėlapį: spustelėkite ant žalios mygtukų su juodo kryžiaus žemyn,; žalią mygtuką su brūkšneliu, jei norite nutolinti; arba žalių rodyklių gretimoms žemėlapius.


METAR-TAF: